ECHO 1 DEB (METAL OBJ), 51

Orbit data source: Space-Track

ECHO 1 DEB (METAL OBJ), 51 is space debris in LEO originally from a launch on Fri, 12 Aug 1960 UTC launched from the Air Force Eastern Test Range (AFETR). Debris objects in space refer to the collection of defunct objects orbiting the Earth. Examples of debris include non-operational satellites, rocket bodies, and fragments generated from explosions, collisions, or faulty payload assembly.

Loading next visibility...
Identifier
51, 1960-009C
Orbit
LEO
Country
Flag of USUS
Related business
Manufacturer
Kaiser-Fleetwings
Mission
Spacecraft
Bus & Motor
ECHO CANISTER, Unknown motor
Mass
5 kg wet, 5 kg dry
Launch date (UTC)
1960-08-12 (65 years ago)
Launch vehicle
Unknown
Launch site
Air Force Eastern Test Range (AFETR)
Object type
Payload
Rocket body
Debris
Shape & HBR
Unknown shape, 1.0 m
Radar Cross Section
Medium (>0.1 m² and <1 m²)

Expand to show TLE details & history
Last TLE update: 22 hours ago

TLE from 22 hours ago
0 ECHO 1 DEB (METAL OBJ)
1 00051U 60009C   25355.05239333 -.00000013  00000-0  70460-3 0  9994
2 00051  47.2113 240.5744 0111375  27.0416 333.6119 12.18378877909455
Epoch: 2025-12-21T01:15Z
TLE epoch observation values (Epoch: 2025-12-21T01:15:26.783Z)
Latitude
0.00001°
Longitude
131.84244°
Altitude
1,520.431 km
Speed
7.141 km/s
True Right ascension
16h 02m 17s
True Declination
0° 00' 00"
Sunlit
Object was in daylight at epoch
Visualization orbit readout
Latitude
Unknown
Longitude
Unknown
Altitude
Unknown
Speed
Unknown
Apparent Right ascension
Unknown
Apparent Declination
Unknown
Sunlit
N/A
Visualization observer readout
Local Sidereal Time
22:45:58
Azimuth
Unknown
Elevation
Unknown
Doppler factor
Unknown
Orbital elements
Apogee altitude
1,689.54 km
Perigee altitude
1,511.812 km
Semi-major axis
7,978.813 km
Eccentricity
0.01114
Inclination
47.2113°
RAAN
240.5744°
Arg. of periapsis
27.0416°
True anomaly
333.03752°
Mean anomaly
333.6119°
Eccentric anomaly
333.32543°
Mean motion
3.04534 °/min
Orbital period
118.21 mins
BSTAR
0.0007046
Loading maneuver chart data...
Computing Atmospheric mass density...
Loading historical data...
Loading historical data...
Loading historical data...
Loading historical data...
Loading historical data...
Loading historical data...
Loading historical data...
Other satellites on launch #9 in the year 1960 (1960-08-12 UTC)

Documentation

Showing up to 5 results
|